sat.trackr.live / text

‹ back to catalog

LILIUM-3

NORAD 66770 · 2025-276DJ

PAYLOAD ACTIVE UNKNOWN

§ Identity

Operator
Country
ROC
Launch date
2025-11-28
Launch site
AFWTR
Launch vehicle
Mass (kg)
RCS (m²)

External: N2YO · Heavens-Above · Gunter

§ Orbital elements

Epoch: 2026-09-19T12:18:31.176576Z

Period
94.74 min
Inclination
97.4164°
Eccentricity
0.0000520
Mean motion
15.19892742 rev/d
Perigee alt
505.8 km
Apogee alt
506.5 km
Semi-major
6,884.3 km
B*
7.2376e-5
RAAN
334.6942°
Arg perigee
334.9498°
Mean anomaly
25.1712°
Rev number
4,475

§ Raw data

LILIUM-31 66770U 25276DJ  26262.51286084  .00001486  00000+0  72376-4 0  99972 66770  97.4164 334.6942 0000520 334.9498  25.1712 15.19892742 44753

JSON: /api/v1/satellites/66770 · /tle

For live sub-satellite position, see the globe view (requires WebGL).

§ Visibility from observer

Set your observer location to see the next 7 days of passes ≥ 10°. The values pass through the URL so the page stays shareable.

No JS? Fill the form by hand. The geolocation button needs JavaScript.